Flag for Papua New Guinea Weather past 2 weeks in Lae, Papua New Guinea

Now
86 °F

Partly sunny.


Feels Like: 97 °F
Forecast: 71 / 98 °F
Wind: 10 mph from South

Location: Moresby


UV Index: 7 (High)

Visibility: N/A


Pressure: 29.68 "Hg

Humidity: 75%

Dew point: 77 °F

Location of LaeLocation

Historic Weather in Lae

°F

Lae temperature yesterday

Maximum temperature yesterday: 88 °F (at 11:00 AM)
Minimum temperature yesterday: 75 °F (at 6:00 AM)
Average temperature yesterday: 82 °F

Past Weeks' High & Low Weather Summary

 TemperatureHumidityPressure
High90 °F (Apr 14, 2:00 PM)100% (Apr 10, 12:00 AM)29.89 "Hg (Apr 10, 12:00 AM)
Low64 °F (Apr 15, 12:00 PM)59% (Apr 14, 2:00 PM)29.65 "Hg (Apr 9, 2:00 PM)
Average80 °F87%29.75 "Hg
* Reported Apr 9 2:00 PM — Apr 24 2:00 PM, Lae, Weather by CustomWeather, © 2014

Note: Actual official high and low records may vary slightly from our data, if they occured in-between our weather recording intervals... More about our weather records

Advertising

Historic Weather Conditions — Data for Previous 24 hours

 ConditionsComfort  
Time TempWeatherWind HumidityBarometerVisibility
2:00 PM
Apr 24
86 °FPartly sunny.10 mph75%29.68 "HgN/A
1:00 PM86 °FPartly sunny.9 mph75%29.71 "HgN/A
12:00 PM86 °FPartly sunny.6 mph75%29.74 "HgN/A
11:00 AM88 °FScattered clouds.3 mph70%29.77 "HgN/A
10:00 AM86 °FScattered clouds.No wind70%29.77 "HgN/A
9:00 AM84 °FScattered clouds.6 mph74%29.77 "HgN/A
8:00 AM82 °FScattered clouds.6 mph84%29.77 "HgN/A
7:00 AM77 °FScattered clouds.No wind100%29.77 "HgN/A
6:00 AM75 °FPassing clouds.No wind100%29.74 "HgN/A
4:00 AM77 °FPassing clouds.No wind94%29.71 "HgN/A
3:00 AM77 °FPassing clouds.No wind94%29.71 "HgN/A
1:00 AM79 °FPassing clouds.No wind94%29.74 "HgN/A
12:00 AM79 °FPassing clouds.No wind94%29.77 "HgN/A
10:00 PM
Apr 23
81 °FPassing clouds.No wind89%29.77 "HgN/A
9:00 PM82 °FPassing clouds.No wind79%29.77 "HgN/A
8:00 PM82 °FWarm.No wind84%29.77 "HgN/A
7:00 PM82 °FPassing clouds.6 mph84%29.74 "HgN/A
6:00 PM82 °FBroken clouds.6 mph84%29.74 "HgN/A
5:00 PM88 °FScattered clouds.6 mph70%29.71 "HgN/A
4:00 PM88 °FScattered clouds.8 mph70%29.68 "HgN/A
Weather by CustomWeather, © 2014

See weather overview